GW0821 Weather Reports


time (UTC)temp
F
wind
direction
speed
knots
gust
knots
rain 1hr
in
rain 24hr
in
rain mn
in
humidity
%
barometer
mb
20220627211548 66 341 0.0 1.7 0.00 0.02 0.02 87 1019.0
20220627210105 67 0 0.0 1.7 0.00 0.02 0.02 88 1019.0
20220627204559 67 0 0.0 0.9 0.00 0.02 0.02 87 1019.0
20220627203103 67 108 0.9 2.6 0.00 0.02 0.02 87 1018.7
20220627201559 67 0 0.0 0.0 0.00 0.02 0.02 88 1018.5
20220627200111 67 0 0.0 0.0 0.00 0.02 0.02 88 1018.3
20220627194556 67 0 0.0 0.9 0.00 0.02 0.02 87 1018.0
20220627193102 67 255 0.0 0.9 0.00 0.02 0.02 86 1017.8
20220627191603 68 0 0.0 0.9 0.02 0.02 0.02 85 1017.6
20220627190054 68 0 0.0 4.3 0.02 0.02 0.02 82 1017.6
20220627184609 69 87 0.0 4.3 0.02 0.02 0.02 81 1017.2
20220627183057 71 281 1.7 7.0 0.01 0.01 0.01 73 1017.3
20220627181549 73 245 2.6 6.1 0.00 0.00 0.00 68 1016.5
20220627180059 74 238 0.9 3.5 0.00 0.00 0.00 63 1016.1
20220627174557 75 256 0.0 0.9 0.00 0.00 0.00 60 1016.0
20220627173102 76 234 1.7 4.3 0.00 0.00 0.00 53 1016.1
20220627171552 76 231 1.7 5.2 0.00 0.00 0.00 53 1016.2
20220627170049 76 159 1.7 3.5 0.00 0.00 0.00 53 1015.3
20220627164548 77 192 1.7 9.6 0.00 0.00 0.00 54 1015.0
20220627163120 78 248 1.7 4.3 0.00 0.00 0.00 52 1015.1
20220627161600 80 227 2.6 6.1 0.00 0.00 0.00 51 1015.0
20220627160107 80 177 1.7 5.2 0.00 0.00 0.00 52 1014.9
20220627154552 79 113 0.9 5.2 0.00 0.00 0.00 53 1014.9
20220627153050 80 160 1.7 3.5 0.00 0.00 0.00 53 1015.0
20220627151610 79 170 2.6 10.4 0.00 0.00 0.00 55 1015.1
20220627150108 81 172 4.3 7.8 0.00 0.00 0.00 52 1015.1
20220627144559 81 138 2.6 6.1 0.00 0.00 0.00 51 1015.0
20220627143105 83 137 2.6 7.8 0.00 0.00 0.00 46 1014.7
20220627141556 84 217 3.5 6.1 0.00 0.00 0.00 42 1014.5
20220627140051 83 232 2.6 5.2 0.00 0.00 0.00 48 1014.1
20220627134608 83 256 2.6 5.2 0.00 0.00 0.00 48 1014.0
20220627133054 82 43 1.7 7.0 0.00 0.00 0.00 50 1013.9
20220627131555 83 234 0.9 6.1 0.00 0.00 0.00 49 1014.0
20220627130101 83 255 1.7 6.1 0.00 0.00 0.00 47 1014.1
20220627124544 82 231 0.9 4.3 0.00 0.00 0.00 47 1014.7
20220627123053 80 241 2.6 5.2 0.00 0.00 0.00 49 1014.9
20220627121553 80 253 3.5 5.2 0.00 0.00 0.00 49 1015.2
20220627120112 81 200 1.7 3.5 0.00 0.00 0.00 50 1015.5
20220627114554 79 136 0.0 2.6 0.00 0.00 0.00 53 1015.8
20220627113121 78 82 2.6 4.3 0.00 0.00 0.00 53 1015.5
20220627111552 79 225 0.9 3.5 0.00 0.00 0.00 52 1015.5
20220627110056 79 222 0.9 2.6 0.00 0.00 0.00 50 1015.6
20220627104553 80 241 1.7 4.3 0.00 0.00 0.00 48 1015.4
20220627103057 81 345 2.6 7.0 0.00 0.00 0.00 49 1014.4
20220627101600 81 6 1.7 6.1 0.00 0.00 0.00 50 1014.6
20220627100114 80 80 1.7 6.1 0.00 0.00 0.00 49 1014.9
20220627094552 79 111 0.9 2.6 0.00 0.00 0.00 55 1015.2
20220627093109 77 238 0.9 2.6 0.00 0.00 0.00 59 1015.2
20220627091558 76 123 2.6 5.2 0.00 0.00 0.00 61 1015.2
20220627090109 76 114 0.0 2.6 0.00 0.00 0.00 63 1015.2
20220627084602 74 0 0.0 1.7 0.00 0.00 0.00 66 1015.2
20220627083053 74 0 0.9 3.5 0.00 0.00 0.00 68 1015.1
20220627081600 74 0 0.9 4.3 0.00 0.00 0.00 67 1014.7
20220627080101 73 61 2.6 6.1 0.00 0.00 0.00 69 1014.6
20220627074600 72 338 2.6 6.1 0.00 0.00 0.00 72 1014.5
20220627073109 71 32 0.9 7.0 0.00 0.00 0.00 73 1014.4
20220627071609 72 75 2.6 6.1 0.00 0.00 0.00 72 1014.3
20220627070104 71 30 0.9 6.1 0.00 0.00 0.00 74 1014.1
20220627064554 69 295 0.9 2.6 0.00 0.00 0.00 76 1013.8
20220627063108 68 0 0.0 0.9 0.00 0.00 0.00 75 1013.7
20220627061614 65 0 0.0 0.0 0.00 0.00 0.00 78 1013.5
20220627060105 63 226 0.0 0.9 0.00 0.00 0.00 80 1013.5
20220627054550 62 0 0.0 0.0 0.00 0.00 0.00 80 1013.3
20220627053055 61 0 0.0 0.0 0.00 0.00 0.00 82 1013.2
20220627051604 60 0 0.0 0.0 0.00 0.00 0.00 82 1013.3
20220627050057 59 0 0.0 0.0 0.00 0.00 0.00 83 1013.2
20220627044606 58 0 0.0 0.9 0.00 0.00 0.00 84 1013.0
20220627043104 59 0 0.0 0.0 0.00 0.00 0.00 84 1012.9
20220627041606 59 0 0.0 0.0 0.00 0.00 0.00 84 1012.6
20220627040106 59 0 0.0 0.0 0.00 0.00 0.00 82 1012.6
20220627034609 59 0 0.0 0.0 0.00 0.00 0.00 85 1012.3
20220627033058 59 0 0.0 0.0 0.00 0.00 0.00 87 1012.3
20220627031545 59 0 0.0 0.0 0.00 0.00 0.00 86 1012.4
20220627030101 59 0 0.0 0.0 0.00 0.00 0.00 85 1012.4
20220627024602 60 0 0.0 0.0 0.00 0.00 0.00 85 1012.4
20220627023100 60 0 0.0 0.0 0.00 0.00 0.00 84 1012.5
20220627021600 60 0 0.0 0.0 0.00 0.00 0.00 84 1012.5
20220627020101 60 0 0.0 0.0 0.00 0.00 0.00 82 1012.4
20220627014610 61 0 0.0 0.0 0.00 0.00 0.00 82 1012.5
20220627013054 60 0 0.0 0.9 0.00 0.00 0.00 80 1012.4
20220627011601 61 0 0.0 0.9 0.00 0.00 0.00 79 1012.3
20220627010057 61 0 0.0 0.9 0.00 0.00 0.00 80 1012.4
20220627004553 62 0 0.9 1.7 0.00 0.00 0.00 78 1012.4
20220627003053 62 0 0.0 0.9 0.00 0.00 0.00 79 1012.6
20220627001607 63 0 0.0 0.0 0.00 0.00 0.00 80 1012.7
20220627000100 63 0 0.0 0.9 0.00 0.00 0.00 76 1012.7
20220626234605 63 0 0.0 0.9 0.00 0.00 0.00 79 1012.4
20220626233104 64 0 0.0 0.9 0.00 0.00 0.00 80 1012.5
20220626231609 64 250 0.0 0.9 0.00 0.00 0.00 80 1012.4
20220626230107 65 0 0.0 0.0 0.00 0.00 0.00 82 1012.4
20220626224607 65 0 0.0 0.0 0.00 0.00 0.00 82 1012.4
20220626223110 66 0 0.0 0.0 0.00 0.00 0.00 81 1012.5
20220626221604 66 0 0.0 0.0 0.00 0.00 0.00 81 1012.4
20220626220103 67 0 0.0 0.9 0.00 0.00 0.00 80 1012.1
20220626214604 67 0 0.0 0.9 0.00 0.00 0.00 79 1011.9
20220626213059 68 0 0.0 0.9 0.00 0.00 0.00 77 1011.9